Overview Statistics Trail Chart Weather Telemetry Raw packets
 

This is the latest recevied weather packets stored in our database for station/object KC9DRE. If no packets are shown the sender has not sent any weather packets the latest 10 day(s).

<< 66 67 68 69 70 71 72 >>
Time Temp. Humidity Pressure Rain* Wind** Luminosity Snow
1777470196 14.44° C 95% 1011.2 hPa 0 mm - 125 W/m² -
1777469893 14.44° C 95% 1011.2 hPa 0 mm - 102 W/m² -
1777469589 14.44° C 95% 1011.4 hPa 0 mm - 50 W/m² -
1777469289 14.44° C 95% 1011.2 hPa 0 mm - 49 W/m² -
1777468985 15° C 95% 1011.1 hPa 0 mm - 89 W/m² -
1777468680 15° C 95% 1011 hPa 0 mm - 116 W/m² -
1777468377 15° C 95% 1010.9 hPa 0 mm - 103 W/m² -
1777468073 15.56° C 95% 1011 hPa 0 mm - 121 W/m² -
1777467770 16.11° C 96% 1010.9 hPa 0 mm - 38 W/m² -
1777467470 16.11° C 97% 1010.8 hPa 0 mm - 40 W/m² -
1777467165 16.67° C 97% 1010.8 hPa 0 mm - 29 W/m² -
1777466863 16.67° C 97% 1010.9 hPa 0 mm - 34 W/m² -
1777466561 16.67° C 97% 1010.7 hPa 0 mm - 20 W/m² -
1777466257 16.67° C 97% 1010.9 hPa 0 mm - 22 W/m² -
1777465953 16.67° C 97% 1010.8 hPa 0 mm - 27 W/m² -
1777465650 16.67° C 97% 1010.8 hPa 0 mm - 31 W/m² -
1777465345 16.67° C 97% 1010.9 hPa 0 mm - 40 W/m² -
1777465044 16.11° C 97% 1010.7 hPa 0 mm - 30 W/m² -
1777464739 16.11° C 97% 1010.8 hPa 0 mm - 25 W/m² -
1777464436 16.11° C 97% 1010.9 hPa 0 mm - 33 W/m² -
1777464132 16.11° C 97% 1010.8 hPa 0 mm - 26 W/m² -
1777463831 16.11° C 97% 1010.8 hPa 0 mm - 23 W/m² -
1777463527 16.11° C 98% 1010.7 hPa 0 mm - 29 W/m² -
1777463222 16.11° C 98% 1010.7 hPa 0 mm - 50 W/m² -
1777462918 16.11° C 98% 1010.8 hPa 0 mm - 40 W/m² -

* Rain latest hour (hover to see other rain measurements)
** Current wind speed in m/s (hover to see current wind gust speed)